Theta_e
350 341 335 335 335 336 335 336 336 337 337 338 337 337 336 334 331 325 324 320 314 313 312 313 315 317 314 314 319 321 323 329 331 333 335 337 338 338 338 337 338 338 338 338 338 338 338 338 337 336 336 336 336 336 336 335 336 334 331 327 323 325 328 331 333 334 335 335 336 336 337 337 337 336 336 337 336 336 336 336 336 336 336 336 336
350 340 333 334 334 334 334 336 336 337 337 338 337 336 335 334 330 323 323 318 313 313 313 313 315 317 315 314 319 324 327 332 334 336 338 338 338 339 339 339 338 338 338 338 338 338 338 338 337 336 336 336 335 336 336 336 336 335 332 326 320 323 327 329 331 331 332 334 335 336 336 336 336 336 335 336 336 335 336 335 335 335 335 335 335
350 339 332 334 333 333 333 335 336 337 337 338 337 336 335 333 329 322 322 317 312 314 313 313 315 317 316 315 318 325 330 333 335 337 338 339 339 339 339 339 339 338 338 338 338 338 337 337 335 332 328 327 326 328 331 334 336 335 331 323 317 323 328 329 330 331 332 332 334 336 336 336 336 336 336 336 335 334 334 334 334 334 334 334 333
350 339 331 333 333 333 333 334 336 337 337 338 336 336 334 333 328 321 320 315 312 314 313 313 315 318 317 316 318 324 331 333 335 337 338 339 339 339 339 339 339 339 339 338 338 336 334 332 327 320 315 313 313 314 317 321 328 330 327 318 316 325 329 330 331 331 332 333 333 333 334 335 336 336 336 335 334 334 334 334 334 333 333 332 331
348 337 332 333 333 333 332 333 335 336 336 337 335 335 333 332 327 320 319 314 312 314 313 313 315 318 318 318 319 325 331 333 334 336 338 339 339 340 339 340 339 339 338 337 336 332 326 320 315 311 310 309 308 308 308 309 313 318 318 314 315 323 329 331 331 331 332 332 332 333 332 333 334 335 335 333 333 332 333 334 333 333 332 331 329
345 334 333 333 333 333 332 332 333 334 335 335 334 335 333 331 326 320 317 313 312 314 313 314 315 318 319 319 320 326 332 334 334 336 338 339 339 339 339 339 339 338 337 335 331 322 314 311 310 309 309 308 308 307 308 307 307 309 310 310 313 322 330 331 332 331 332 331 332 333 332 329 325 329 333 331 331 331 332 332 332 332 332 331 329
343 337 336 333 333 333 332 331 331 333 333 333 333 334 333 331 326 319 316 312 312 314 314 314 314 317 319 320 321 326 331 333 335 336 337 338 339 339 339 338 338 337 335 333 326 314 309 309 309 309 308 308 308 307 307 308 308 307 308 308 311 323 330 330 330 330 331 331 332 332 331 327 317 322 328 326 328 330 331 332 331 332 332 331 328
343 341 339 333 333 333 331 331 330 332 332 331 332 334 333 331 325 318 314 311 312 313 314 314 314 316 319 321 322 325 330 333 335 337 337 338 338 339 338 336 335 334 332 329 321 313 310 310 309 309 309 308 308 308 307 308 308 308 308 309 317 327 331 330 331 330 330 330 330 330 331 328 317 321 326 322 327 329 330 331 330 330 331 330 327
343 343 341 333 332 333 331 330 329 330 330 331 331 333 334 331 323 316 313 310 311 313 314 314 313 315 318 321 323 326 330 333 335 337 337 337 337 337 335 332 330 330 326 321 316 312 310 310 309 309 309 309 308 308 308 308 308 308 309 315 324 329 330 331 331 332 333 331 330 330 331 328 317 320 326 327 329 329 329 330 329 328 328 327 323
344 344 343 335 333 333 331 330 328 328 329 330 332 333 333 330 322 314 311 310 311 313 314 314 313 315 318 320 322 326 330 333 335 336 336 335 334 335 331 328 328 327 321 315 313 312 310 309 309 309 309 309 309 309 308 308 308 311 317 323 328 328 328 329 329 330 331 330 329 328 328 324 314 316 325 330 332 329 327 327 326 325 323 321 320
344 344 343 336 332 334 332 331 328 327 328 330 331 332 332 328 320 313 310 310 311 313 314 314 314 314 317 319 321 324 329 331 334 335 335 334 331 331 329 327 328 326 319 314 313 311 310 310 310 311 311 310 310 310 309 308 312 321 328 331 331 331 331 331 331 331 329 329 327 324 321 316 310 313 319 325 329 327 324 322 321 319 318 317 317
345 345 344 336 332 334 332 331 328 326 327 329 331 330 329 325 318 311 310 310 310 312 313 314 314 314 316 318 321 322 326 329 331 332 333 331 328 327 327 328 327 322 316 314 312 311 310 310 311 311 311 312 311 311 310 311 317 326 331 332 332 332 332 333 332 331 330 328 325 321 316 313 310 310 313 318 322 323 320 317 315 314 314 314 314
345 346 344 336 333 334 332 330 327 325 326 327 328 328 326 322 316 310 310 310 310 312 313 314 314 314 315 317 320 322 324 327 329 331 332 331 328 326 328 329 326 319 315 314 312 310 310 311 311 311 312 312 312 312 312 314 318 324 329 331 332 331 331 333 333 333 331 328 323 319 313 312 311 309 312 314 316 316 314 313 312 312 311 311 311
345 347 345 336 333 334 332 329 325 324 325 325 325 324 322 319 314 310 310 310 310 311 312 313 314 314 314 315 318 321 323 325 327 330 332 333 332 328 327 328 324 319 315 314 313 311 311 311 311 311 311 312 312 313 314 315 317 321 328 331 331 331 331 332 333 333 330 324 318 314 311 310 311 310 311 311 311 311 310 310 310 310 310 310 310
347 347 342 334 334 334 331 327 324 323 323 324 323 321 318 315 313 311 310 310 310 310 312 313 313 314 314 315 317 319 322 323 324 327 329 331 332 329 328 326 322 319 316 314 314 312 311 310 311 311 311 312 312 313 314 315 317 320 325 330 331 331 331 331 333 333 329 322 315 311 311 310 310 310 310 310 310 309 309 309 309 309 310 309 309
349 346 338 333 334 334 330 325 323 323 323 323 321 318 316 314 313 312 310 310 310 310 311 312 312 313 314 314 316 318 320 322 323 324 326 328 328 329 329 325 321 319 316 316 315 313 312 310 310 311 311 311 311 312 313 314 316 318 323 329 331 332 332 331 333 334 331 322 314 311 311 311 311 310 310 310 310 310 310 309 310 309 310 310 310
349 344 335 334 335 333 329 324 321 323 323 322 319 316 315 314 313 313 311 310 310 310 311 312 313 313 313 314 315 316 318 319 321 323 324 324 325 326 327 324 321 319 317 317 316 314 313 311 310 310 311 311 311 312 313 314 315 317 322 327 332 334 334 334 333 335 332 322 313 312 312 312 311 311 310 310 310 310 310 310 310 310 310 310 310
347 342 334 334 334 333 330 323 320 322 322 320 317 316 315 314 314 314 313 311 311 310 311 312 313 313 313 314 315 315 316 317 318 320 321 322 322 323 324 323 321 319 317 318 317 315 315 313 311 311 312 312 313 314 315 316 316 318 321 326 331 332 332 332 332 332 328 320 315 313 312 312 312 311 311 311 310 311 311 310 310 310 310 310 311
347 343 337 336 335 334 331 323 321 322 321 318 317 317 316 315 315 315 314 313 313 312 311 311 312 312 313 313 314 314 314 315 316 317 318 319 321 321 321 322 322 320 318 319 318 317 317 316 314 312 313 314 314 315 316 316 317 318 320 325 330 333 334 334 333 330 323 318 316 314 314 314 313 312 312 311 311 312 311 311 311 311 310 311 311
347 344 341 339 337 335 331 324 322 322 321 319 318 317 317 316 315 315 314 314 314 313 312 312 311 311 312 312 312 313 313 314 314 315 315 317 319 319 320 321 322 321 319 319 319 319 318 318 318 317 315 315 316 316 317 317 318 319 321 325 330 333 334 334 335 331 324 318 317 316 316 315 314 313 312 312 312 312 312 311 311 311 311 311 311
345 343 342 341 339 336 331 327 325 324 324 322 320 319 318 317 316 315 314 314 313 313 313 313 313 312 313 313 312 312 312 312 313 314 314 314 315 317 319 319 321 322 321 320 320 320 320 320 320 321 321 320 319 320 320 320 320 322 322 324 326 329 333 335 335 332 326 320 318 318 317 317 316 315 312 312 312 312 311 311 311 311 311 310 310
345 343 342 340 341 338 334 333 330 328 328 326 324 323 321 319 317 316 315 314 314 313 313 313 313 313 314 314 314 315 315 313 312 312 313 313 313 315 318 318 318 320 322 322 322 322 323 323 322 323 323 323 323 321 322 322 322 322 321 323 323 326 333 336 335 333 328 322 321 319 318 318 317 316 314 313 312 311 310 311 311 310 310 310 310
346 343 341 342 343 340 337 337 335 333 332 330 329 326 321 319 320 320 321 320 319 317 317 318 318 319 318 316 316 319 322 321 319 316 312 313 313 313 317 319 318 318 321 324 324 324 325 325 324 323 322 323 322 321 321 320 321 321 321 323 323 327 332 335 335 333 329 324 322 320 319 319 318 317 316 314 313 312 312 310 310 310 310 310 309
346 343 342 342 343 341 339 339 338 336 336 334 333 328 321 322 326 326 327 328 328 327 327 328 328 327 325 321 321 324 329 331 329 324 319 317 316 315 315 319 320 318 318 322 325 325 326 326 325 324 322 322 320 324 326 322 320 320 323 325 324 331 335 335 335 331 327 325 322 321 320 319 320 319 318 316 314 315 314 312 310 309 309 309 309
346 344 343 342 342 341 340 340 339 337 338 337 335 332 325 327 333 332 332 334 334 335 335 335 335 334 332 329 329 330 333 335 333 331 329 325 323 320 316 317 321 323 319 318 322 324 325 325 325 325 323 324 326 331 334 331 326 323 329 331 328 334 335 333 333 328 327 327 323 321 321 321 321 320 319 318 316 317 316 314 313 311 310 310 309
347 345 343 342 342 341 340 340 339 339 339 338 336 336 332 332 336 337 337 337 337 337 338 338 338 337 337 336 335 334 335 336 334 333 334 332 331 329 322 315 317 322 323 321 320 320 322 323 324 324 324 328 333 335 335 335 333 331 335 332 328 333 334 333 332 329 329 327 323 322 322 322 322 322 321 320 319 319 318 318 316 314 313 312 312
346 345 343 342 342 341 340 340 340 339 339 337 336 337 335 335 338 338 338 338 338 338 339 339 338 338 339 338 337 336 336 335 334 333 334 335 336 336 331 323 319 319 321 323 323 320 319 321 321 322 325 331 335 335 335 334 333 333 335 330 330 335 333 333 332 330 330 327 324 323 323 323 322 322 322 322 321 320 320 320 318 317 316 315 314
345 344 343 343 342 342 341 340 340 340 338 337 337 338 337 337 338 338 338 338 338 339 339 339 338 339 339 338 338 337 336 335 333 332 333 335 336 336 333 330 329 327 324 322 324 324 321 324 326 323 323 330 335 336 334 333 331 332 335 331 331 334 333 333 332 332 329 325 325 324 323 324 323 323 323 323 322 322 322 321 320 319 317 317 316
345 344 343 343 342 342 341 341 341 339 338 338 338 339 339 338 338 338 339 339 339 339 339 338 338 339 339 338 338 337 336 334 333 333 334 335 335 336 332 330 331 332 332 328 327 332 329 329 334 329 326 332 336 336 334 332 330 331 334 332 331 334 333 333 333 332 327 323 326 327 325 324 324 324 323 323 323 323 323 322 322 320 319 318 318
344 343 343 343 342 342 341 341 341 339 338 337 338 339 339 338 338 338 339 340 339 338 338 338 337 339 338 336 336 337 336 335 335 335 335 335 336 336 334 333 331 330 334 333 331 335 333 331 336 333 331 335 336 336 335 332 331 331 333 333 331 331 331 332 332 332 329 325 326 329 329 326 324 324 324 323 323 323 322 322 322 322 320 319 319
342 342 343 343 342 342 342 341 340 339 338 337 338 339 339 338 338 338 340 339 338 337 338 338 336 337 337 337 337 337 336 334 334 335 335 335 334 334 334 334 332 330 333 334 332 334 335 332 335 334 333 334 334 335 333 331 331 330 331 333 332 329 330 333 332 333 332 327 326 330 331 328 325 324 323 323 323 322 321 321 323 322 319 318 320
341 341 342 342 342 342 342 341 340 340 339 339 340 340 339 338 338 338 338 338 337 337 338 338 337 337 337 336 337 336 335 334 333 335 335 335 334 333 334 333 331 332 333 334 333 333 334 333 334 335 334 335 334 333 332 330 330 330 331 333 332 331 333 334 333 334 332 327 327 328 329 327 324 324 323 322 321 321 320 322 324 321 317 318 320
342 342 342 342 343 343 342 340 340 340 340 340 340 340 340 339 339 338 338 338 338 337 338 337 337 336 335 334 334 334 334 335 334 334 335 336 334 333 334 333 332 334 334 334 333 332 333 334 335 335 335 335 335 333 332 331 330 330 331 332 332 332 334 333 333 333 331 330 329 327 328 327 325 325 323 322 320 319 319 321 322 319 317 318 319
342 343 343 343 343 342 341 341 341 341 341 340 339 339 340 340 339 338 338 339 339 339 338 337 336 335 334 335 335 335 335 335 335 335 334 334 334 333 334 334 333 334 334 333 333 333 332 332 333 334 334 333 334 334 333 332 331 331 332 332 332 332 333 333 333 332 331 332 332 330 330 328 328 328 323 322 321 319 317 317 317 316 316 317 316
343 343 344 344 343 343 342 342 341 340 340 340 339 339 340 340 339 338 337 338 339 338 338 337 337 337 336 335 336 336 336 335 335 334 334 334 333 333 334 334 334 333 333 332 332 332 332 330 330 331 331 330 332 333 333 332 332 331 332 332 332 333 333 333 333 332 331 332 333 332 331 330 331 330 327 325 323 319 316 314 314 313 313 315 316
342 342 341 342 342 342 342 343 343 342 342 341 340 340 339 338 337 337 336 336 337 337 338 337 337 337 336 335 335 334 335 335 334 334 334 334 333 332 332 332 332 332 332 331 332 332 331 329 328 328 329 330 331 332 332 332 332 332 333 333 333 333 333 333 333 332 332 332 332 332 332 331 331 331 330 329 326 320 315 315 314 313 312 314 316
340 338 337 338 339 340 340 342 342 341 342 342 341 341 340 338 338 338 339 338 337 337 337 337 337 336 336 335 334 333 333 333 333 333 333 333 332 331 331 332 331 331 331 330 331 331 330 329 328 327 327 329 332 332 332 332 332 333 333 333 333 333 333 334 333 332 332 332 333 333 332 331 332 332 330 330 329 323 317 317 318 317 316 315 315
338 336 335 338 339 338 337 337 338 339 340 341 340 340 340 340 340 339 339 338 337 337 337 337 336 335 335 334 334 333 332 333 333 333 333 332 332 330 331 332 332 331 330 329 329 329 330 329 328 328 328 327 329 331 332 332 333 333 333 333 333 333 334 334 333 331 331 332 333 333 332 331 332 331 330 330 330 326 320 319 319 321 322 320 318
340 337 335 338 340 339 336 334 336 338 339 339 338 339 340 339 339 339 339 339 338 337 337 337 336 335 334 334 334 333 333 333 333 333 333 332 331 331 331 332 332 331 331 330 330 329 328 327 326 328 329 328 328 328 330 331 332 333 333 332 332 333 333 333 332 331 331 332 332 333 332 331 331 330 329 330 330 329 326 323 320 322 325 324 324
341 339 337 339 340 340 337 334 335 336 336 337 337 338 339 338 338 338 338 339 338 338 337 336 335 334 334 335 335 334 334 333 333 333 333 331 330 331 331 331 331 331 331 330 331 330 328 327 327 326 328 329 328 327 328 330 331 332 333 331 331 333 333 332 331 331 332 332 332 333 331 331 331 330 329 330 331 330 329 327 325 325 327 326 325
341 341 339 339 340 340 339 336 336 335 335 336 337 336 336 337 337 337 337 337 337 337 337 336 336 335 334 334 334 334 334 333 333 332 332 331 330 330 330 331 331 331 331 330 330 331 329 328 327 327 326 327 328 327 327 329 330 331 332 331 332 333 333 332 330 331 332 333 333 332 331 331 331 330 330 330 331 331 329 329 328 328 328 328 326
341 340 339 338 338 338 338 338 336 334 334 334 335 336 337 337 337 337 337 337 338 338 337 337 337 336 335 334 334 334 333 333 332 331 331 331 330 330 330 331 331 331 331 331 330 330 330 329 328 328 327 327 327 327 328 329 329 331 331 332 333 333 332 331 330 331 332 333 333 331 331 332 331 331 330 330 331 331 330 329 329 329 328 328 327
341 340 338 337 337 338 338 337 335 334 336 336 335 336 336 336 335 335 336 336 337 337 336 336 335 335 335 335 334 333 333 332 331 330 330 330 330 331 331 331 331 330 330 331 330 330 330 330 329 328 329 328 327 327 327 328 329 331 331 332 332 331 331 331 330 330 331 331 332 331 331 331 331 331 330 330 330 330 330 329 329 329 329 328 328
341 340 339 338 338 338 337 336 335 335 337 337 334 333 332 333 334 333 333 333 333 334 333 332 332 333 335 335 335 334 333 332 331 329 329 329 329 330 331 331 330 329 329 329 329 328 329 330 330 329 328 328 327 327 327 327 329 331 331 331 332 331 331 331 329 330 330 331 331 331 331 331 331 331 330 330 330 330 330 329 329 329 329 329 329
342 340 339 340 339 340 338 336 336 336 336 335 333 332 330 331 333 333 334 334 334 335 335 333 333 335 337 337 336 335 334 333 332 330 329 328 327 327 329 330 330 329 329 328 327 326 327 329 330 329 328 327 325 325 327 329 329 330 331 331 331 331 331 331 330 330 330 330 331 331 331 331 331 330 330 330 330 330 330 329 329 329 328 329 329
341 340 339 340 340 340 339 338 338 337 336 336 335 334 332 331 333 333 335 336 336 337 338 337 337 338 338 337 337 337 335 334 333 331 330 329 328 326 327 329 330 329 329 330 329 327 327 329 329 329 328 326 325 325 328 329 328 329 331 331 331 331 332 331 331 331 331 330 331 331 331 331 331 330 330 330 329 330 330 329 330 329 328 328 328
341 339 339 340 340 340 340 340 339 338 338 338 336 335 334 334 334 334 335 336 336 336 337 338 338 338 337 337 337 337 335 335 334 333 331 330 329 328 327 328 329 330 330 331 330 328 327 328 328 328 329 328 328 328 328 328 329 330 331 331 331 332 331 330 330 331 331 331 330 330 330 330 331 330 330 330 329 330 330 329 329 329 328 328 328
339 338 338 338 339 339 340 340 339 339 339 338 338 337 336 336 336 336 336 336 336 336 336 336 337 337 337 337 337 336 335 335 334 334 333 331 330 330 329 329 330 330 330 331 330 329 329 329 328 326 328 328 329 329 328 328 329 330 331 332 331 331 331 330 329 329 330 331 331 330 330 330 330 329 329 329 329 330 330 329 329 328 328 328 328
337 337 336 336 337 337 338 338 338 339 339 339 338 338 337 337 337 336 336 336 336 336 336 336 336 336 336 337 337 336 335 335 334 334 333 333 332 332 331 332 332 331 331 331 331 331 330 331 328 326 328 329 329 329 328 328 329 330 331 331 331 331 331 330 329 329 329 330 331 331 330 329 329 329 330 329 329 329 330 329 329 328 328 328 328
336 336 336 335 335 336 336 336 337 337 337 338 338 338 338 337 337 336 336 336 336 336 335 335 336 336 336 336 336 336 335 334 334 334 333 334 333 333 332 333 333 333 332 332 332 332 331 331 330 328 329 330 329 329 328 328 330 330 330 330 329 329 329 329 329 329 329 329 330 330 330 329 329 330 330 329 329 329 329 329 329 328 328 328 328
336 335 335 335 335 336 336 335 335 335 335 335 335 335 335 334 334 334 334 334 334 333 332 332 333 333 333 334 335 335 335 334 334 333 332 333 334 333 333 333 333 333 333 332 332 332 332 332 332 331 331 330 329 329 328 329 329 330 329 329 328 327 327 327 327 327 328 328 329 329 330 330 330 330 330 329 329 329 329 329 329 328 328 328 328
Wind_Speed
10 16 18 17 16 15 15 15 15 15 15 14 13 12 11 10 11 11 11 11 10 10 11 12 12 13 14 17 19 21 21 20 20 19 18 16 15 14 15 15 15 15 14 14 13 13 12 12 11 11 11 11 11 10 10 10 11 12 13 13 12 14 16 17 17 17 18 19 19 18 19 20 20 19 19 20 19 19 20 19 19 19 20 19 18
11 17 19 17 16 15 15 15 15 15 15 14 13 11 10 10 10 10 11 11 10 11 11 12 12 13 14 17 18 20 20 19 18 18 18 17 16 16 16 16 15 15 14 14 13 13 12 12 11 11 10 9 9 9 9 9 11 11 11 11 12 14 17 17 17 16 15 16 17 18 19 20 20 19 19 19 19 19 19 18 17 18 18 17 18
11 17 20 18 16 15 15 15 14 15 15 14 13 11 10 10 10 10 11 11 11 11 11 11 12 13 14 17 18 19 19 18 18 17 17 17 16 16 16 16 15 15 14 14 13 12 11 11 11 10 9 8 8 7 7 7 9 9 9 10 12 16 19 21 21 20 17 15 15 16 16 18 19 18 18 18 18 18 18 17 16 16 16 16 16
13 17 20 18 16 15 15 14 14 14 14 14 12 11 10 10 10 10 11 11 12 11 11 11 11 13 14 16 18 19 19 18 18 17 17 17 17 16 16 15 15 14 14 13 12 11 10 10 9 9 8 8 7 7 6 6 7 7 8 10 13 18 21 23 24 23 22 19 17 14 11 14 16 16 16 15 16 16 16 16 16 15 15 14 15
13 19 21 19 17 15 15 14 14 14 14 13 12 11 10 10 10 10 11 12 12 11 11 11 12 13 14 16 17 19 19 18 18 17 16 16 16 16 15 15 14 14 13 12 11 10 10 10 9 9 9 9 8 7 7 7 7 7 8 11 14 19 22 23 23 22 21 19 18 14 7 8 11 13 13 12 13 13 14 14 15 14 14 14 14
12 21 22 20 19 16 15 14 14 14 14 13 12 11 10 10 9 10 11 12 12 11 11 11 12 12 13 15 17 19 18 18 17 16 16 16 16 16 15 14 14 13 12 11 10 10 10 11 10 10 10 10 10 10 10 11 11 11 12 13 16 21 22 21 20 19 19 17 17 10 3 4 6 9 10 11 11 12 12 13 14 14 13 13 13
11 19 19 20 20 17 16 14 14 14 13 12 12 11 10 10 9 10 11 13 13 11 11 10 11 12 12 14 16 18 18 17 16 15 15 15 15 15 14 13 13 12 11 10 10 10 11 11 11 11 12 12 13 13 14 14 15 15 15 16 19 22 23 21 20 19 17 16 14 5 4 5 5 9 9 9 11 11 12 12 13 13 13 12 11
12 16 15 20 20 17 17 14 14 13 13 12 11 11 10 10 9 10 11 13 13 12 11 10 11 11 12 13 15 17 17 17 15 15 15 15 15 15 14 13 12 12 11 10 10 11 12 12 12 13 13 15 15 16 17 18 18 18 19 20 22 22 21 21 20 18 16 13 10 3 3 5 6 10 9 8 10 11 11 11 13 13 13 11 9
15 17 14 19 20 18 17 14 14 13 12 12 11 11 10 9 8 10 11 13 13 12 11 10 10 11 12 13 15 16 17 16 14 14 14 14 14 14 13 12 12 11 11 11 11 11 12 13 13 14 15 16 17 18 19 20 21 22 23 23 23 21 20 19 18 17 13 12 11 7 5 6 7 10 10 9 9 10 9 9 10 10 9 8 8
18 18 14 18 20 18 17 14 13 12 12 11 10 10 9 8 8 10 11 13 12 12 11 10 10 10 11 13 14 15 15 15 14 14 13 13 13 13 12 11 11 11 11 11 12 12 13 14 15 15 15 16 18 19 20 21 23 25 26 25 24 22 21 19 19 17 10 8 9 7 3 4 5 8 10 9 7 8 8 7 7 7 7 7 8
20 18 13 17 21 17 16 14 13 12 11 10 9 9 8 8 8 9 11 12 12 11 11 10 9 9 11 12 13 13 14 15 14 13 12 12 11 11 11 10 10 10 11 11 12 13 14 15 16 16 16 17 18 18 19 21 25 27 26 24 22 21 20 18 19 16 10 9 6 4 1 2 6 9 9 8 7 8 7 6 7 7 7 8 8
19 17 13 17 21 17 15 13 12 11 10 9 8 8 7 7 8 9 10 11 11 11 10 9 9 8 10 11 11 12 12 13 13 13 12 12 11 10 10 9 8 9 10 11 12 14 15 16 16 17 17 18 18 18 19 21 25 27 26 24 23 21 20 19 19 14 8 8 5 3 4 5 8 10 9 8 8 8 7 7 8 8 8 8 8
18 16 11 16 20 16 15 12 11 10 9 9 7 7 6 7 8 9 10 10 10 10 9 8 8 7 8 9 10 10 10 11 11 12 12 11 10 9 9 8 7 8 10 11 12 13 14 15 16 17 18 19 19 19 20 22 24 26 26 25 23 21 20 18 17 11 6 5 4 4 5 6 9 10 10 9 9 8 8 8 9 9 9 9 8
20 15 10 17 19 15 14 11 10 9 9 8 7 6 6 7 7 7 8 9 9 8 8 8 7 7 7 8 9 10 9 10 10 10 11 11 9 8 8 7 7 8 9 10 11 12 13 14 15 16 17 18 19 19 21 22 23 25 26 25 23 21 19 18 14 9 6 5 5 7 7 8 9 10 10 10 10 10 9 9 9 9 9 9 8
18 14 14 19 18 15 14 11 10 9 8 7 6 6 6 6 6 6 7 7 7 7 8 8 8 7 6 7 8 8 9 9 8 8 9 10 9 8 8 7 7 7 8 9 11 11 11 12 13 15 16 17 18 19 19 20 22 24 25 23 22 21 18 18 13 6 4 4 6 8 9 10 10 11 11 10 10 10 9 9 9 9 9 8 8
14 12 17 19 17 15 13 11 9 8 8 7 6 6 6 6 5 5 5 6 6 6 8 9 9 7 7 6 7 7 7 7 7 6 7 8 9 9 8 7 7 7 8 9 9 10 10 11 12 13 14 16 17 17 18 18 19 21 23 22 21 20 18 17 12 6 5 4 5 8 9 10 10 10 10 9 8 9 9 8 8 8 8 8 8
12 11 17 19 16 15 13 11 10 9 8 7 6 6 5 5 5 4 5 6 6 7 8 9 9 8 7 7 7 7 6 6 6 6 6 7 8 9 9 8 7 7 8 8 9 10 10 10 11 12 13 14 15 16 18 17 17 19 21 21 20 18 17 16 11 6 4 3 6 7 8 9 10 9 9 8 8 7 7 7 7 7 7 7 7
12 13 18 18 16 15 13 12 12 11 9 8 7 6 6 5 5 5 6 7 7 8 8 8 8 8 8 8 7 7 6 6 6 6 5 6 7 8 9 9 8 8 8 8 8 10 10 10 10 11 12 13 15 15 17 17 18 18 20 20 19 17 15 14 7 4 4 1 4 5 6 8 8 8 8 7 7 6 7 6 6 6 6 6 6
14 14 18 17 16 14 13 14 14 13 11 10 9 9 8 8 7 8 8 9 9 9 8 8 8 8 8 9 8 7 6 6 6 6 6 6 7 8 9 9 9 8 9 8 8 9 10 10 10 11 12 12 13 14 15 17 17 17 18 19 19 18 15 14 6 1 1 1 3 3 3 5 6 7 7 7 6 6 6 6 5 5 5 5 5
16 17 21 19 15 14 14 15 15 14 13 12 11 11 11 10 10 10 10 10 10 10 9 8 8 8 8 9 8 7 6 6 6 6 6 6 7 8 9 10 10 9 9 9 8 9 10 10 10 10 11 11 12 13 14 15 15 15 15 16 17 17 16 12 6 4 2 2 3 2 1 2 3 4 6 6 5 5 5 6 5 5 4 4 4
16 16 20 18 14 17 17 15 16 15 14 14 12 12 12 12 12 12 12 11 11 11 10 9 9 9 8 8 8 7 6 7 7 7 7 7 8 7 9 10 10 10 10 10 10 9 10 10 10 10 10 10 10 11 11 12 12 12 12 12 13 15 16 9 3 6 3 2 2 1 1 1 0 1 4 4 4 4 4 4 4 4 4 4 3
15 14 15 15 15 19 19 16 16 15 15 15 14 12 11 12 12 13 12 12 12 11 11 10 9 8 6 6 6 6 5 6 6 7 8 8 9 8 9 11 11 11 11 12 11 10 10 10 10 10 9 9 9 9 9 10 9 9 8 8 8 11 14 8 3 6 6 2 1 1 2 3 3 2 3 3 3 3 3 3 3 3 3 3 3
13 13 12 14 16 19 19 17 16 14 13 13 13 11 11 12 13 12 11 11 11 10 10 9 7 6 5 5 7 6 5 5 5 7 9 9 9 10 10 11 12 12 12 13 12 12 11 10 10 10 9 9 9 9 8 7 6 6 5 4 6 9 11 7 5 9 10 7 4 4 3 4 4 4 4 3 3 3 3 4 4 4 4 4 3
12 13 14 15 16 17 17 17 16 14 13 12 12 12 12 13 12 11 10 10 9 8 9 8 8 8 7 7 8 7 7 7 6 7 9 9 9 10 11 12 13 13 13 13 13 13 12 11 11 10 10 9 8 7 4 3 3 2 1 3 8 10 8 5 6 10 10 8 6 6 4 5 5 4 4 3 3 4 3 3 2 3 3 4 4
13 12 14 16 16 15 15 15 15 14 14 12 11 13 13 12 11 11 11 10 9 9 9 9 8 9 9 8 7 7 8 9 8 8 9 9 10 10 11 13 14 15 14 14 14 14 13 12 11 10 10 8 7 5 2 4 2 2 0 1 7 8 4 5 6 10 9 9 7 6 5 6 5 4 3 3 3 4 3 3 2 2 2 3 3
13 12 15 16 15 15 15 15 14 14 13 11 11 12 12 11 10 10 10 10 9 10 10 9 8 8 9 7 7 8 9 11 10 10 9 9 10 10 9 10 14 16 15 15 15 15 14 13 12 11 9 8 8 8 6 10 4 3 2 4 5 8 4 3 6 10 9 9 7 6 6 6 5 4 3 2 3 4 4 4 3 2 3 3 2
12 12 14 14 14 14 15 15 15 15 13 11 11 11 11 10 10 9 10 10 9 9 8 8 7 8 9 7 8 9 10 11 11 12 11 10 8 8 8 7 10 13 16 16 16 16 15 15 13 12 11 9 8 8 11 11 2 3 7 6 5 6 4 4 9 11 10 9 6 6 6 6 5 4 4 2 3 4 4 4 3 3 3 3 2
11 11 12 13 13 13 15 15 15 15 13 11 11 11 10 10 11 11 11 9 8 7 7 7 7 9 10 9 10 11 10 11 12 13 13 13 11 9 9 8 8 10 13 15 15 15 13 14 13 13 14 10 7 10 13 10 5 6 11 7 5 5 6 6 9 12 12 8 4 4 5 5 5 6 5 4 4 4 4 4 3 3 3 3 2
10 10 11 13 13 13 14 14 14 14 13 13 11 10 9 10 11 12 12 10 8 7 8 8 9 11 12 12 12 13 12 13 14 14 14 15 15 12 12 12 10 10 13 14 13 14 13 14 14 14 14 11 11 14 13 11 9 9 10 8 7 9 10 8 7 11 13 9 4 4 5 5 5 6 6 5 5 4 4 4 4 3 3 4 4
10 10 10 12 13 12 12 12 12 12 12 12 11 9 9 9 11 12 11 9 8 8 10 11 11 13 14 14 15 15 14 14 14 15 15 16 17 14 13 13 14 15 15 15 13 16 17 15 15 17 14 14 15 16 15 13 12 10 10 10 11 11 11 10 8 10 13 10 7 6 6 6 5 6 5 5 4 4 4 5 4 3 3 3 4
9 10 10 10 10 11 11 10 10 9 9 10 10 9 9 10 10 11 9 8 8 10 13 12 13 14 14 16 16 15 15 14 14 16 16 16 17 16 15 14 16 17 16 16 14 17 20 17 17 18 16 16 17 18 18 14 12 11 11 13 13 8 7 9 9 11 13 11 8 7 7 7 5 5 5 4 3 4 4 5 4 4 3 2 3
10 10 9 9 9 8 8 8 9 9 8 9 10 9 10 10 9 9 10 10 11 12 13 12 12 12 12 15 14 14 15 14 15 18 17 16 16 17 17 16 17 17 18 18 16 17 21 19 17 18 17 17 18 19 18 15 12 11 13 14 11 6 8 11 10 11 13 11 9 7 6 6 5 4 4 3 3 3 3 3 3 3 3 2 2
11 10 9 9 8 8 7 7 9 8 8 9 9 10 10 9 8 10 11 12 12 11 11 11 11 11 12 13 15 15 16 16 17 19 19 17 16 17 17 18 18 19 20 20 19 19 21 21 19 19 20 19 18 17 17 17 16 14 14 15 12 10 11 11 10 12 13 10 10 9 6 4 4 3 2 2 2 3 3 2 2 3 3 2 1
10 10 9 8 7 7 7 6 7 8 9 9 10 10 9 8 9 10 11 11 11 9 9 10 10 11 12 13 15 15 15 16 17 17 19 19 18 17 18 19 19 21 23 23 21 22 23 23 21 20 19 19 19 17 16 17 17 16 16 16 14 12 13 12 11 12 11 8 7 9 7 4 3 2 1 1 2 2 2 2 1 2 2 1 1
9 9 9 8 6 5 5 5 5 6 7 8 9 9 7 8 9 10 10 10 11 10 9 10 9 10 10 11 13 13 12 13 15 17 18 19 19 19 19 20 21 23 25 24 24 24 24 24 21 20 18 18 20 19 19 19 18 17 17 17 15 15 16 14 12 12 9 8 7 7 9 7 4 2 1 0 2 2 1 1 1 1 2 1 2
11 10 9 8 7 6 5 4 4 4 4 4 5 7 8 9 11 11 11 11 12 11 9 9 8 9 10 11 12 13 14 13 14 16 17 18 19 20 20 21 22 24 25 25 24 24 24 23 21 21 19 18 19 20 21 21 19 19 19 19 17 17 17 15 14 13 10 9 9 8 9 8 6 4 3 1 0 0 1 2 2 2 1 2 3
11 9 7 7 7 7 7 7 6 5 4 4 4 6 6 7 9 10 9 9 9 9 8 9 8 10 11 11 11 12 13 12 11 13 15 15 16 18 20 22 22 23 24 25 25 24 24 23 22 22 22 21 19 19 20 21 22 21 20 20 18 18 17 15 15 13 11 10 9 9 10 8 6 6 5 3 3 2 1 3 4 4 4 4 5
9 7 6 7 6 4 6 8 8 7 6 5 5 4 4 4 5 6 6 6 7 8 9 9 8 10 11 11 11 11 11 10 9 10 13 13 13 15 18 21 23 22 22 23 24 25 24 23 23 22 23 23 22 20 19 22 24 20 20 20 19 19 17 16 16 12 11 10 9 10 9 8 7 6 6 6 5 3 2 2 3 4 6 6 6
8 7 7 7 6 4 4 7 7 6 5 4 4 4 4 4 4 5 5 5 7 8 8 8 8 9 10 10 11 10 9 9 9 9 11 12 11 12 15 19 22 22 22 22 23 23 24 24 24 24 23 23 24 23 22 22 23 21 22 21 18 19 18 17 16 13 11 10 10 11 10 9 8 7 8 9 8 5 5 4 3 2 4 5 5
7 7 7 7 6 4 5 5 5 4 3 2 2 3 3 4 5 6 5 5 7 8 8 8 8 9 8 9 10 10 10 9 9 10 11 12 11 11 13 16 20 22 21 22 22 21 21 22 23 24 24 23 23 24 24 23 23 23 23 21 18 19 19 18 16 13 12 11 11 12 11 10 10 11 12 12 10 8 6 5 4 4 2 3 4
7 6 6 5 5 5 4 3 2 2 3 2 2 3 2 2 3 4 4 5 7 8 9 8 7 9 9 8 10 11 10 10 10 11 11 12 12 12 13 15 19 21 22 22 21 20 20 20 21 22 23 24 23 23 24 24 24 25 24 21 18 16 17 16 14 13 14 13 13 13 11 11 11 13 14 13 12 10 6 6 6 5 4 3 3
6 6 6 4 5 4 3 3 1 1 1 1 1 0 1 2 3 4 4 5 5 6 8 8 7 9 9 9 10 11 12 11 11 12 12 12 13 14 14 15 17 20 21 21 21 21 21 20 20 21 22 23 22 22 23 24 24 24 23 20 16 14 14 14 14 14 17 16 14 14 13 12 13 14 14 12 13 11 7 7 7 6 5 4 3
5 5 5 5 4 3 2 2 1 2 1 1 1 1 3 4 4 5 7 8 8 8 9 10 9 10 11 11 11 11 13 12 12 12 13 14 15 15 15 15 16 18 20 21 21 23 24 23 22 21 21 21 21 22 24 25 24 20 19 18 16 16 15 15 15 15 17 18 16 15 14 14 15 15 13 12 13 12 9 8 8 7 7 6 4
5 5 5 4 5 3 1 1 2 2 1 2 3 4 4 4 5 5 6 7 8 7 9 10 10 10 11 12 12 13 14 14 13 13 13 14 15 16 15 16 16 17 19 20 20 21 23 25 25 23 22 22 21 21 23 26 25 21 20 19 15 15 15 16 18 17 16 17 17 17 16 15 16 14 12 13 12 11 11 9 8 8 9 9 7
5 5 5 4 4 2 1 2 2 3 3 4 6 7 8 7 7 7 7 8 8 8 9 8 8 9 11 12 12 13 14 15 15 15 15 15 16 16 16 17 17 18 19 20 20 20 20 23 25 25 24 23 22 21 21 24 26 26 25 21 14 13 14 13 15 16 17 18 19 19 18 16 16 14 14 14 12 12 12 10 9 9 9 10 8
6 5 5 4 4 2 2 2 2 4 5 6 8 9 11 10 9 8 7 7 8 9 10 10 10 10 11 12 13 13 14 15 16 17 16 17 17 17 17 18 19 20 20 20 21 21 21 23 24 25 24 23 24 23 22 23 25 27 27 24 16 12 14 13 12 13 16 18 19 20 19 17 15 14 15 16 14 13 12 10 11 11 10 10 9
8 7 7 7 5 4 2 1 2 4 6 6 7 9 10 11 10 10 9 8 9 9 10 11 12 12 13 14 15 16 16 16 17 18 18 18 18 19 19 19 20 21 21 21 23 22 22 22 22 23 23 21 23 25 24 22 25 28 28 26 20 13 12 15 14 12 13 16 19 20 20 18 16 15 16 17 17 16 14 13 14 12 11 11 11
10 9 9 9 8 6 5 3 3 1 3 4 6 8 10 10 10 11 11 11 12 12 12 12 13 15 16 16 17 18 18 17 18 19 20 20 19 19 20 20 21 22 22 23 24 24 22 21 21 22 23 22 23 24 24 23 25 29 29 25 22 17 14 14 13 12 12 13 15 18 19 18 17 17 18 17 19 19 17 15 14 13 12 12 13
7 5 5 6 6 5 5 5 5 5 3 4 5 7 9 11 11 12 12 12 13 14 14 14 15 16 17 18 18 20 20 19 19 20 21 21 21 20 20 21 22 22 23 24 25 25 24 23 22 23 24 24 24 24 23 23 25 28 27 23 21 20 18 15 13 12 12 12 12 14 17 18 19 20 19 19 19 18 17 16 14 13 13 12 12
3 2 1 1 1 1 1 1 2 4 5 6 7 8 10 12 12 13 14 14 15 16 16 17 17 17 19 20 20 21 22 20 20 21 22 22 22 22 22 23 24 24 23 23 24 26 26 25 24 23 24 25 24 24 23 22 25 25 23 21 21 22 22 18 15 13 13 13 13 13 14 18 21 21 20 20 19 17 16 17 16 15 15 14 13
4 3 2 2 2 2 3 3 3 2 2 5 8 9 10 12 13 13 13 15 16 16 17 18 18 18 19 20 20 22 24 22 21 23 24 23 23 23 23 24 25 26 25 23 23 25 26 26 25 23 24 24 25 26 24 22 23 24 23 22 20 21 24 23 21 17 14 14 15 15 14 17 20 20 19 19 18 16 16 18 18 16 16 16 14
Wind_Direction
168 166 162 151 151 143 144 139 138 135 135 134 129 129 121 115 101 96 100 102 98 89 77 71 71 77 95 107 111 114 115 114 111 108 103 100 97 96 96 97 97 97 97 96 96 93 92 89 89 89 89 91 94 96 96 97 98 97 90 78 73 78 81 80 76 74 74 77 81 84 84 83 81 80 80 80 79 78 76 74 72 71 70 70 70
172 167 162 150 150 144 143 142 143 140 140 138 136 137 126 118 105 100 106 108 105 95 81 76 76 83 99 109 114 117 119 118 112 106 101 99 99 98 98 99 98 97 97 95 94 91 89 87 84 82 82 83 86 91 94 97 99 98 89 78 78 80 80 80 75 69 68 73 79 81 82 82 81 80 79 79 78 77 75 73 71 71 69 68 68
181 167 159 150 149 145 145 144 145 144 144 143 144 142 130 122 108 105 111 114 111 99 86 81 81 88 101 110 115 117 120 118 112 106 101 101 100 100 100 99 98 97 97 95 93 90 87 84 80 77 75 75 79 86 94 100 102 100 90 84 88 84 81 81 76 70 66 71 73 72 78 81 80 79 77 76 77 76 74 73 70 69 68 66 67
187 176 159 149 150 147 146 145 149 148 148 149 151 145 132 124 113 110 117 120 114 103 91 87 87 92 101 110 116 118 119 115 111 107 104 104 103 102 101 100 98 97 96 93 90 87 85 84 80 75 73 73 75 77 87 99 108 108 97 95 97 90 84 80 76 71 69 68 59 49 63 80 80 76 73 72 71 73 73 73 71 68 67 66 66
187 178 159 151 152 151 149 149 152 152 153 155 154 146 136 127 117 114 122 124 117 108 96 92 92 94 102 111 117 119 118 115 113 110 108 107 106 104 102 101 99 97 95 90 87 85 86 86 84 79 77 76 77 79 85 95 107 112 105 104 104 95 86 80 76 73 72 70 62 49 40 67 78 77 70 69 68 70 73 74 73 69 67 66 67
186 172 158 155 154 153 154 154 154 156 157 158 155 147 139 130 119 118 127 128 121 112 100 96 95 95 102 110 117 121 119 116 115 113 113 111 108 106 105 104 100 98 94 91 88 87 88 87 85 81 79 78 79 82 91 98 103 107 108 107 107 99 88 80 74 72 74 74 80 76 347 1 64 86 80 76 76 74 75 75 74 71 68 65 68
183 165 157 159 155 155 156 157 157 159 159 158 156 149 141 132 122 123 131 132 125 115 104 98 97 98 101 108 116 121 119 116 117 117 116 113 112 109 107 106 103 100 97 96 93 89 88 85 85 84 82 79 78 85 95 102 105 108 108 107 107 100 89 80 73 72 71 73 87 89 306 339 50 90 89 89 88 82 79 77 76 72 69 65 65
163 154 163 164 156 155 156 161 160 160 160 159 156 151 143 133 124 125 135 135 128 119 109 102 101 100 102 107 115 119 119 119 120 120 118 116 116 113 111 109 108 108 105 103 98 92 89 86 87 87 85 82 84 90 97 103 106 106 105 106 104 97 89 86 83 80 79 88 94 62 347 16 67 92 88 94 94 91 88 84 83 80 77 67 58
144 151 175 167 157 157 157 162 161 163 162 159 157 151 145 136 127 129 140 138 132 124 114 107 104 103 106 110 115 118 119 123 124 122 120 119 119 117 116 116 115 113 108 104 101 97 94 93 92 90 90 90 91 94 99 103 105 105 105 106 102 95 90 87 86 83 92 117 115 96 77 52 73 92 90 97 98 98 99 93 90 86 79 64 56
145 162 184 169 159 157 158 161 161 164 163 161 158 152 148 138 129 134 143 141 136 128 119 112 107 107 110 113 118 119 121 125 126 125 122 121 121 121 121 120 118 112 107 106 105 102 99 98 97 95 95 96 96 98 101 103 105 106 104 101 95 91 89 85 82 77 85 122 126 116 94 31 62 91 98 103 101 100 100 95 90 81 71 59 57
156 174 189 172 161 156 157 160 161 164 163 164 160 154 151 141 135 139 146 144 138 131 124 117 111 111 114 117 121 123 126 128 129 129 126 124 123 124 123 118 115 111 109 109 108 105 103 102 100 99 99 100 100 101 103 105 107 105 101 97 93 90 88 85 83 80 81 98 119 133 83 18 70 93 104 104 99 94 92 89 85 79 71 64 60
164 181 198 175 158 154 156 158 162 163 163 165 162 158 154 144 139 141 147 145 139 133 128 122 116 114 118 122 124 127 131 133 134 133 131 128 123 123 120 115 115 114 112 111 110 107 106 105 104 103 102 102 102 103 105 108 109 106 102 98 95 90 88 85 84 88 92 95 104 97 69 69 81 92 98 98 97 90 89 87 81 79 74 70 65
163 180 194 169 155 153 154 157 160 160 161 162 162 157 152 142 137 140 146 145 138 135 134 129 123 119 121 126 129 130 133 137 140 141 139 134 127 121 116 119 124 120 116 114 112 108 108 108 108 108 107 105 103 103 106 110 110 107 104 101 98 93 90 87 87 98 105 94 92 78 72 76 82 92 95 94 95 90 89 86 82 83 78 74 69
170 181 177 165 156 150 150 156 156 155 155 152 151 144 138 132 131 134 140 142 136 140 144 138 134 131 128 131 135 135 137 140 145 150 150 147 140 127 122 132 135 126 123 120 114 110 110 112 114 114 112 110 107 105 108 111 109 106 105 102 99 93 88 85 84 99 103 85 78 80 84 83 82 87 92 92 90 90 89 87 87 88 85 81 75
176 178 169 167 154 146 147 151 150 146 144 136 132 124 119 120 119 123 130 136 136 149 153 150 150 149 143 141 143 143 146 147 148 155 156 153 152 141 134 144 143 137 133 125 118 114 113 117 120 119 117 115 113 111 110 112 110 108 107 102 99 96 93 91 88 81 59 51 69 82 88 88 86 86 88 88 85 86 87 90 92 92 92 89 85
172 168 164 163 151 145 142 143 142 134 129 120 115 110 107 111 113 115 122 133 146 162 160 159 163 164 160 156 158 156 156 157 153 156 158 153 153 148 143 152 153 150 144 132 124 120 118 122 125 123 121 119 116 114 111 111 110 109 108 105 102 99 97 93 89 67 37 46 84 94 98 96 94 93 92 91 88 87 89 94 97 100 99 96 93
163 159 160 158 148 142 135 134 132 125 121 114 112 111 111 117 122 124 133 148 160 168 163 164 168 173 176 172 173 174 173 168 161 161 165 159 153 150 148 156 161 160 152 140 134 130 125 126 128 127 124 121 119 116 113 110 109 110 109 108 106 104 103 99 102 110 91 79 92 98 105 104 103 102 101 98 94 93 95 99 102 104 102 100 97
150 153 159 154 144 138 133 130 129 130 129 127 128 121 124 132 135 142 151 159 166 172 168 161 162 171 182 184 185 188 190 185 179 174 178 172 159 153 153 159 167 168 160 152 146 140 132 130 132 131 128 125 123 119 116 114 112 111 109 108 104 98 95 90 100 160 158 107 85 105 117 114 114 113 114 114 112 112 111 110 108 106 104 103 100
141 147 151 143 139 138 135 136 136 139 140 141 142 137 139 145 150 156 158 162 166 171 167 161 161 165 174 184 190 195 201 206 202 195 196 188 173 164 161 166 174 175 170 165 158 149 141 135 133 133 133 129 126 123 120 118 117 115 111 107 100 95 91 88 99 188 137 62 68 94 122 124 132 133 133 133 135 137 131 128 125 121 119 117 114
145 146 141 131 138 148 142 142 143 142 148 151 152 153 155 157 163 165 163 166 167 167 166 169 174 173 173 174 182 191 200 210 215 215 212 205 192 180 173 177 182 184 179 175 171 161 152 143 137 134 133 132 129 126 122 121 120 117 113 109 107 109 102 104 149 242 301 58 61 56 37 97 133 142 141 148 155 151 143 144 148 145 141 139 135
145 134 132 130 145 153 142 142 146 150 158 161 165 167 167 168 169 168 167 170 171 170 171 179 186 187 179 170 176 185 200 213 221 228 225 226 217 193 185 189 189 190 188 183 180 173 163 154 144 137 135 132 129 125 121 120 117 115 112 110 111 108 99 97 223 273 293 90 72 39 342 326 251 163 149 164 169 158 161 162 166 164 161 165 160
134 121 130 138 148 148 143 147 154 162 167 166 171 173 176 174 169 168 167 170 174 176 177 182 188 193 191 188 189 185 201 212 222 239 235 236 238 219 199 198 199 196 196 191 185 182 173 164 153 144 141 135 129 123 118 116 115 114 107 106 104 99 105 117 215 272 297 354 5 294 305 288 269 239 196 187 181 171 188 193 193 192 189 194 187
133 135 144 146 148 148 149 156 162 167 170 172 172 173 178 170 165 165 168 170 171 173 173 173 173 176 188 194 192 186 201 205 213 240 236 237 245 240 219 207 207 204 201 197 192 188 182 174 164 157 151 146 138 123 113 115 113 104 91 98 96 89 102 126 215 251 282 312 306 277 281 276 269 251 223 197 200 204 214 217 213 215 222 227 223
143 145 147 148 153 154 155 163 168 167 173 182 174 172 178 176 170 164 169 173 170 177 176 173 168 165 172 184 194 197 206 210 214 233 234 237 242 247 239 223 216 212 207 201 199 195 190 187 177 173 165 162 163 134 104 117 114 83 70 81 91 90 100 140 239 264 285 313 308 276 273 269 265 255 239 216 223 231 236 236 225 224 235 244 249
149 147 150 153 157 163 163 165 169 169 175 183 180 179 183 191 186 170 175 181 182 196 194 189 185 180 181 189 204 206 204 211 221 232 238 243 245 249 246 238 229 223 218 206 204 204 201 199 191 187 176 173 177 143 288 269 292 351 6 59 105 112 125 165 241 277 292 319 315 274 270 268 267 264 247 236 247 256 256 257 257 251 255 256 257
157 155 155 158 159 166 170 166 169 175 179 183 186 188 190 195 190 179 186 194 200 208 206 200 197 197 198 201 212 212 209 217 231 240 242 244 256 269 262 250 241 235 232 221 212 211 210 210 203 197 183 170 159 143 207 254 298 42 233 250 124 118 119 167 248 272 282 309 308 271 273 274 276 280 268 266 266 273 276 270 271 275 279 273 273
160 158 157 162 163 166 169 170 175 179 180 186 190 190 191 192 192 194 200 208 215 214 211 207 208 215 216 215 222 223 221 225 236 246 245 235 240 269 274 267 259 251 244 236 228 220 215 217 214 200 189 174 159 168 202 230 228 135 242 248 118 119 147 188 249 266 279 302 298 262 274 283 286 292 291 301 287 286 285 278 280 280 279 278 292
157 162 163 163 164 167 170 174 179 180 179 187 194 189 189 196 203 209 208 214 226 223 221 221 225 231 232 228 230 233 231 233 241 247 247 240 231 237 252 259 267 269 259 248 237 232 222 214 223 213 197 187 189 213 216 217 188 186 244 244 141 164 176 191 243 259 274 293 289 255 272 285 293 299 298 306 304 297 286 281 285 280 279 280 295
149 160 166 165 169 170 169 171 177 185 184 188 196 193 197 209 213 217 214 213 219 227 233 238 240 242 245 243 238 237 235 236 242 248 247 243 238 232 238 241 238 244 255 253 229 229 231 205 220 232 208 203 212 218 214 202 189 194 235 239 183 189 187 188 226 255 269 283 289 267 274 286 297 301 303 313 315 310 306 304 301 294 286 278 283
141 147 161 165 168 168 169 171 178 189 189 192 200 201 212 220 220 223 218 212 215 230 236 238 245 246 248 248 239 234 236 239 240 245 247 242 236 228 228 228 228 228 234 248 223 218 236 211 211 235 222 216 215 211 210 193 186 199 225 235 218 205 195 193 207 239 261 282 294 283 282 287 295 296 305 320 319 321 324 316 309 306 295 276 275
142 142 151 156 158 163 171 175 183 194 195 198 203 207 218 221 223 227 227 228 231 237 236 235 244 249 252 250 239 232 239 245 245 245 244 239 233 231 231 226 230 230 222 235 225 214 236 223 208 229 229 221 210 204 214 204 192 204 217 230 236 224 197 193 198 226 252 277 287 284 284 276 278 292 303 316 317 327 331 316 307 308 301 276 268
138 135 140 146 150 159 170 173 180 192 194 195 198 206 217 220 223 231 234 236 236 240 245 245 247 253 260 255 246 249 252 249 247 246 243 236 229 228 229 227 230 232 223 225 220 216 232 227 213 225 229 224 211 203 213 210 195 204 216 226 232 214 203 200 195 220 248 269 276 283 287 260 255 280 298 316 331 328 331 323 310 321 314 276 249
131 127 129 136 146 161 175 176 178 185 191 193 198 206 217 222 224 234 238 236 237 237 242 247 248 254 261 256 252 256 256 251 247 241 236 233 229 224 223 227 230 229 228 224 217 215 223 224 215 220 226 225 217 209 212 210 197 202 218 226 219 203 215 216 203 220 240 260 277 292 293 243 251 283 287 322 5 344 340 342 308 323 318 275 231
126 121 118 123 139 161 174 176 181 187 195 201 206 211 216 222 226 236 242 240 242 240 237 243 244 246 253 256 252 248 248 248 246 236 229 229 227 225 223 227 231 230 232 230 221 217 222 224 217 219 228 223 215 211 217 216 201 200 211 221 219 207 215 218 209 224 236 242 263 290 290 268 287 299 253 350 37 21 355 343 305 310 303 270 226
125 124 124 127 132 148 159 164 177 183 193 200 209 217 218 226 233 241 245 243 246 253 254 251 246 246 252 258 256 256 256 249 247 242 233 230 228 225 224 229 235 237 237 236 229 224 227 231 223 219 226 226 219 213 216 218 206 204 212 217 213 208 214 213 210 226 232 220 224 254 274 282 300 290 243 351 37 49 43 16 2 335 306 235 148
132 135 137 140 145 156 157 152 160 167 185 192 212 228 224 232 245 247 245 242 243 250 255 249 248 257 265 267 264 265 266 258 252 247 237 234 233 228 227 233 238 239 240 239 235 230 231 236 233 224 222 226 229 225 222 221 211 208 215 215 208 212 219 214 213 223 224 217 215 224 245 263 278 274 257 250 219 72 94 86 65 50 18 125 127
134 136 136 140 151 167 170 164 160 164 182 192 221 242 234 233 242 240 235 234 238 244 250 250 251 255 260 264 267 274 273 264 254 248 242 238 237 233 233 235 236 237 239 238 237 237 235 237 239 234 227 223 227 235 235 231 221 211 214 212 207 216 217 212 219 221 217 217 209 215 232 239 248 250 250 253 231 211 157 122 95 78 75 92 104
121 116 114 123 129 149 171 168 163 166 175 187 209 235 251 249 246 246 247 252 252 247 248 254 257 254 254 258 266 279 282 268 254 248 242 237 239 241 237 235 234 235 237 237 238 241 239 239 238 236 234 227 223 229 236 239 235 221 215 211 206 216 214 210 220 217 214 218 205 209 224 224 226 231 242 250 235 220 225 187 129 95 83 87 92
113 108 106 114 128 120 126 154 161 165 175 194 217 229 253 264 268 270 271 272 270 262 259 263 266 263 260 263 272 280 281 270 258 250 242 240 244 245 241 236 234 235 236 237 239 240 238 238 237 236 236 233 229 228 230 238 242 231 222 219 211 213 212 211 218 211 212 220 211 211 217 216 213 215 230 239 233 227 232 228 195 139 97 93 91
116 114 107 106 123 107 95 135 150 161 175 180 234 234 231 247 262 264 264 274 279 278 281 284 279 277 268 261 271 279 282 277 264 254 248 246 245 241 241 237 233 234 235 237 239 240 239 237 237 239 238 236 234 233 232 234 240 236 229 232 229 213 202 210 217 206 207 217 216 217 216 211 202 205 223 233 233 228 225 232 222 196 158 118 102
121 116 113 109 114 110 102 107 105 190 191 176 225 232 222 230 249 255 255 266 278 284 290 296 288 288 290 274 272 274 274 275 269 264 259 252 248 244 244 240 233 233 236 239 240 240 240 236 236 240 241 239 236 235 235 234 237 237 231 233 234 216 200 209 218 206 203 209 215 220 215 210 204 205 219 227 227 226 228 234 226 205 196 179 131
122 122 121 123 120 127 127 103 58 181 190 274 230 271 295 258 234 232 230 228 250 269 272 276 275 281 291 285 277 273 272 275 272 269 266 260 255 251 249 244 236 235 238 239 240 239 238 234 232 237 239 239 237 237 237 235 237 240 236 228 218 215 214 215 218 210 205 209 218 221 212 212 215 212 216 220 218 222 229 227 221 211 206 204 173
126 129 127 128 120 120 122 114 56 94 90 312 255 241 264 262 252 241 236 226 226 243 255 259 263 270 278 280 277 275 276 278 276 270 267 266 262 257 254 251 243 236 236 237 239 239 238 235 233 235 238 240 238 239 238 237 240 239 230 225 216 215 222 222 221 217 214 217 222 220 213 215 221 217 215 215 214 219 221 212 212 214 207 205 201
124 126 127 125 117 122 122 67 17 61 69 320 309 284 283 288 284 277 271 259 248 260 273 266 265 272 275 276 276 274 272 273 276 273 268 267 266 263 260 260 254 240 235 237 239 240 240 237 236 234 235 239 241 243 241 237 238 233 222 222 220 212 218 224 224 221 217 220 223 221 218 219 222 219 213 211 213 219 216 205 201 210 210 204 205
135 134 128 121 118 135 48 54 37 27 18 350 340 334 337 330 315 319 323 313 308 317 316 300 286 284 279 279 280 277 272 271 273 272 270 267 266 266 264 262 256 244 237 239 241 244 243 238 237 236 234 238 245 250 248 238 233 233 228 223 217 213 218 222 221 219 218 219 222 223 222 223 223 220 212 212 218 221 217 209 203 205 208 205 202
154 144 128 131 131 120 40 60 45 14 11 357 348 346 342 335 325 323 321 306 301 304 304 299 290 282 277 279 279 277 276 275 273 271 269 267 266 266 265 262 257 250 244 242 243 244 244 241 239 237 235 237 244 249 250 243 233 232 230 222 216 220 216 209 204 209 216 221 223 223 224 225 223 219 216 217 223 223 215 214 212 202 198 203 205
168 160 156 159 155 142 126 92 52 13 359 347 338 333 331 329 320 313 309 299 293 286 280 280 281 279 276 275 274 274 277 278 277 275 274 272 269 268 267 265 261 255 250 246 246 246 247 247 243 240 240 239 241 244 247 243 231 229 228 221 218 226 217 207 207 207 211 219 222 223 226 228 225 224 221 218 221 222 215 214 217 210 202 207 206
173 173 182 179 171 160 154 150 128 76 335 321 316 314 314 312 303 301 305 305 302 298 293 286 284 284 280 277 275 275 277 278 278 278 278 277 273 271 271 268 263 258 253 250 249 248 247 245 244 246 244 241 241 240 243 240 231 229 228 221 218 223 222 217 222 222 216 215 217 222 227 228 230 229 224 220 221 221 215 211 215 216 211 207 199
174 175 195 189 179 169 164 164 161 172 218 260 280 288 292 293 291 293 294 293 291 291 293 291 288 287 285 282 280 279 279 279 280 281 280 278 275 274 273 269 265 261 257 254 252 249 247 242 243 247 243 242 242 238 238 238 231 227 224 220 219 223 226 227 230 232 225 220 221 226 225 223 227 228 223 222 224 220 214 209 210 209 206 206 200
167 148 190 193 159 131 130 142 172 196 215 242 255 258 269 277 282 286 287 286 286 285 284 284 286 287 287 286 286 285 283 280 280 281 280 277 274 273 272 271 269 265 261 259 255 249 248 244 241 245 242 239 239 234 233 234 230 225 221 222 226 229 231 231 234 234 228 225 225 229 226 220 224 227 220 219 222 219 212 209 208 201 196 203 208
146 147 146 114 74 59 47 27 349 312 288 285 282 278 279 283 285 288 292 295 296 296 292 290 290 290 290 290 290 291 290 286 280 277 276 276 273 270 270 272 270 267 265 264 258 250 248 246 242 243 239 234 233 231 229 228 229 229 228 229 230 232 233 234 235 232 228 229 227 227 229 224 227 229 222 217 216 212 207 207 209 202 194 197 202